ONEWEB-0092, 45437

Orbit data source: Space-Track

ONEWEB-0092, 45437 is a payload satellite owned by One Web (UK) in LEO that was launched on Sat, 21 Mar 2020 UTC via a SOYUZ-2-1B launch vehicle from the Tyuratam Missile And Space Complex (TTMTR). Payload-class satellites include a variety of spacecraft equipped with specific instruments for various scientific and technological missions. These include communications satellites like Starlink; space stations such as the ISS; scientific satellites like the Hubble; Earth observation satellites from companies like Planet Labs, Umbra, and HawkEye 360; GPS; miniature CubeSats for education and research; and military/defense satellites.

Loading next visibility...
Identifier
45437, 2020-020P
Orbit
LEO
Country
Flag of UKUK
Related business
Manufacturer
One Web
Mission
Operational Commercial Communications
Bus & Motor
ARROW, Unknown motor
Mass
148 kg wet, ~140 kg dry
Launch date (UTC)
2020-03-21 (6 years ago)
Launch vehicle
SOYUZ-2-1B
Launch site
Tyuratam Missile And Space Complex (TTMTR)
Object type
Payload
Rocket body
Debris
Shape & HBR
Trap Box + 2 Pan, 6.7 m
Radar Cross Section
3.464 m², Large (>1 m²)

Expand to show TLE details & history
Last TLE update: 20 hours ago

TLE from 20 hours ago
0 ONEWEB-0092
1 45437U 20020P   25293.90461340  .00000546  00000-0  15047-2 0  9999
2 45437  87.8831  68.7132 0001625  87.8501 272.2813 13.11416522271427
Epoch: 2025-10-20T21:42Z
TLE epoch observation values (Epoch: 2025-10-20T21:42:38.597Z)
Latitude
-0.00004°
Longitude
73.45215°
Altitude
1,220.524 km
Speed
7.244 km/s
True Right ascension
04h 34m 51s
True Declination
0° 00' 00"
Sunlit
Object was in full shadow at epoch
Visualization orbit readout
Latitude
Unknown
Longitude
Unknown
Altitude
Unknown
Speed
Unknown
Apparent Right ascension
Unknown
Apparent Declination
Unknown
Sunlit
N/A
Visualization observer readout
Local Sidereal Time
12:39:40
Azimuth
Unknown
Elevation
Unknown
Doppler factor
Unknown
Orbital elements
Apogee altitude
1,216.036 km
Perigee altitude
1,213.569 km
Semi-major axis
7,592.94 km
Eccentricity
0.00016
Inclination
87.8831°
RAAN
68.7132°
Arg. of periapsis
87.8501°
True anomaly
272.26269°
Mean anomaly
272.2813°
Eccentric anomaly
272.272°
Mean motion
3.28041 °/min
Orbital period
109.74 mins
BSTAR
0.0015047
Loading maneuver chart data...
Computing Atmospheric mass density...
Loading historical data...
Loading historical data...
Loading historical data...
Loading historical data...
Loading historical data...
Loading historical data...
Loading historical data...

Documentation

Showing up to 5 results
|